GMT,Max TemperatureF,Mean TemperatureF,Min TemperatureF,Max Dew PointF,MeanDew PointF,Min DewpointF,Max Humidity, Mean Humidity, Min Humidity, Max Sea Level PressureIn, Mean Sea Level PressureIn, Min Sea Level PressureIn, Max VisibilityMiles, Mean VisibilityMiles, Min VisibilityMiles, Max Wind SpeedMPH, Mean Wind SpeedMPH, Max Gust SpeedMPH,PrecipitationIn, CloudCover, Events, WindDirDegrees
2010-10-1,59,54,50,57,50,43,100,81,55,29.44,29.33,29.21,6,6,4,25,15,40,0.00,4,Rain,201
2010-10-2,57,54,50,52,50,46,94,86,77,29.44,29.36,29.27,6,6,6,17,11,,0.00,5,Rain,146
2010-10-3,59,52,46,55,50,45,100,89,77,29.44,29.30,29.21,6,6,5,16,8,31,0.00,3,Rain,203
2010-10-4,60,54,48,55,50,46,94,85,72,29.44,29.30,29.15,6,6,2,32,13,41,0.00,4,Rain,180
2010-10-5,59,54,50,48,46,43,88,76,55,29.36,29.28,29.18,6,6,6,25,14,,0.00,4,,185
2010-10-6,60,53,46,52,47,43,93,80,63,29.71,29.50,29.36,6,6,6,21,12,,0.00,3,,178
2010-10-7,62,56,51,55,51,46,94,80,59,29.80,29.73,29.65,6,6,6,22,13,32,0.00,5,Rain,127
2010-10-8,66,63,60,61,59,55,94,87,78,29.77,29.69,29.62,6,6,6,24,17,33,0.00,6,Rain,106
2010-10-9,66,62,59,59,57,54,94,83,73,29.86,29.81,29.77,6,6,4,21,16,28,0.00,6,,87
2010-10-10,59,58,57,54,54,52,88,86,82,30.06,29.93,29.83,6,4,3,13,10,,0.00,8,,37
2010-10-11,64,55,44,55,50,43,100,89,59,30.15,30.11,30.06,6,3,0,9,6,,0.00,2,Fog,30
2010-10-12,60,48,35,54,44,36,100,93,77,30.21,30.19,30.15,6,3,0,6,3,,0.00,3,Fog,12
2010-10-13,51,45,39,48,44,39,100,97,87,30.24,30.22,30.18,3,1,0,9,3,,0.00,5,Fog,62
2010-10-14,51,48,46,48,45,41,100,85,71,30.27,30.26,30.24,6,5,2,9,4,,0.00,7,,359
2010-10-15,57,50,44,54,50,45,100,90,72,30.30,30.25,30.21,6,6,6,15,6,,0.00,6,,305
2010-10-16,55,48,41,54,45,39,100,89,58,30.33,30.28,30.21,6,5,0,12,6,,0.00,3,Fog-Rain,6
2010-10-17,59,49,39,54,46,37,100,94,82,30.36,30.29,30.24,6,4,0,15,5,,0.00,6,Fog-Rain,174
2010-10-18,55,53,50,52,49,48,100,89,77,30.24,30.18,30.09,6,6,2,22,10,,0.00,6,Rain,259
2010-10-19,55,48,41,50,45,39,94,82,63,30.18,30.07,30.04,6,6,6,20,10,31,0.00,4,Rain,300
2010-10-20,51,42,33,43,37,32,100,78,47,30.30,30.25,30.18,6,6,6,14,4,,0.00,4,Rain,245
2010-10-21,55,50,44,46,44,41,100,84,58,30.24,30.20,30.15,6,6,6,13,6,,0.00,5,Fog-Rain,222
2010-10-22,55,50,44,52,46,41,94,89,77,30.15,29.90,29.71,6,6,4,21,9,,0.00,4,Rain,191
2010-10-23,53,47,41,48,44,39,100,87,67,29.89,29.74,29.65,6,6,5,16,6,,0.00,3,Rain,288
2010-10-24,51,42,32,41,37,32,100,89,62,30.30,30.13,29.92,6,6,0,8,5,,0.00,1,Fog,4
2010-10-25,53,44,35,50,41,34,100,86,67,30.30,30.21,30.01,6,6,2,22,10,,0.00,6,Rain,128
2010-10-26,62,58,53,57,56,50,100,92,82,30.01,29.87,29.74,6,6,2,21,14,,0.00,7,Rain,189
2010-10-27,55,52,48,54,48,45,94,87,77,29.89,29.83,29.77,6,6,4,22,13,,0.00,5,Rain,203
2010-10-28,60,54,48,57,51,45,100,88,77,29.80,29.62,29.36,6,6,2,26,13,33,0.00,5,Rain,169
2010-10-29,55,50,46,50,47,45,100,92,77,29.36,29.19,29.06,6,6,2,18,11,,0.00,6,Rain,207
2010-10-30,55,48,41,48,44,41,100,90,72,29.27,29.23,29.21,6,6,6,10,8,,0.00,4,Rain,113
2010-10-31,51,46,41,48,45,41,100,94,82,29.95,29.60,29.27,6,6,6,14,9,,0.00,6,Fog-Rain,345